Simultaneous Nadir Overpasses (SNOs) Predictions

Prediction of SNOs between AQUA and NOAA-19 Satellite Orbit:

Table of predicted SNOs for the next 14.0 days since TLE Epoch: 2/29/2020
Index Date (AQUA) Time (AQUA) Lat,Lon (AQUA) SZA (AQUA ) Date (NOAA-19) Time (NOAA-19) Lat,Lon (NOAA-19) SZA (NOAA-19 ) Distance(km) Time Diff (sec)
1 03/02/2020 06:54:13 79.93, 46.31 88.50 03/02/2020 06:53:50 79.95, 46.22 88.54 2.79 23
2 03/02/2020 07:43:40 -79.94,-146.13 91.50 03/02/2020 07:44:54 -80.00,-145.92 91.50 7.65 74
3 03/04/2020 12:27:58 -79.92, 142.96 92.39 03/04/2020 12:27:16 -79.95, 142.87 92.34 3.28 42
4 03/04/2020 13:17:25 79.94, -49.58 87.64 03/04/2020 13:18:10 79.96, -49.70 87.65 2.89 45
5 03/06/2020 18:01:43 79.93,-120.51 86.75 03/06/2020 18:00:31 79.92,-120.64 86.79 2.56 72
6 03/06/2020 18:51:10 -79.94, 47.06 93.25 03/06/2020 18:51:36 -79.95, 46.97 93.24 2.66 26
7 03/09/2020 00:24:55 79.94, 143.56 85.89 03/09/2020 00:24:51 79.93, 143.44 85.89 2.89 4
8 03/11/2020 05:58:40 -79.94,-119.85 95.01 03/11/2020 05:58:17 -79.92,-119.91 95.01 2.38 23
9 03/11/2020 06:48:07 79.96, 47.61 85.02 03/11/2020 06:49:11 79.94, 47.51 84.98 3.66 64
10 03/13/2020 11:32:24 79.92, -23.10 84.07 03/13/2020 11:31:31 79.92, -23.12 84.10 0.65 53




NCC Satellite Simultaneous Nadir Overpasses (SNOs) Prediction Service
